STARLINK-1714, 46562

Orbit data source: Space-Track

STARLINK-1714, 46562 is a payload satellite owned by SpaceX/Seattle (US) in LEO that was launched on Tue, 06 Oct 2020 UTC via an FALCON 9 launch vehicle from the Air Force Eastern Test Range (AFETR). Payload-class satellites include a variety of spacecraft equipped with specific instruments for various scientific and technological missions. These include communications satellites like Starlink; space stations such as the ISS; scientific satellites like the Hubble; Earth observation satellites from companies like Planet Labs, Umbra, and HawkEye 360; GPS; miniature CubeSats for education and research; and military/defense satellites.

Loading next visibility...
Identifier
46562, 2020-070AG
Orbit
LEO
Country
Flag of USUS
Related business
Manufacturer
SpaceX/Seattle
Mission
Partially operational Commercial Communications
Bus & Motor
STARLINK, Unknown motor
Mass
260 kg wet, ~248 kg dry
Launch date (UTC)
2020-10-06 (6 years ago)
Launch vehicle
FALCON 9
Launch site
Air Force Eastern Test Range (AFETR)
Object type
Payload
Rocket body
Debris
Shape & HBR
Box + 1 Pan, 10.1 m
Radar Cross Section
13.562 m², Large (>1 m²)

Expand to show TLE details & history
Last TLE update: 17 hours ago

TLE from 17 hours ago
0 STARLINK-1714
1 46562U 20070AG  26168.91096746  .00107545  00000-0  73477-3 0  9990
2 46562  53.0375 346.2587 0003480 148.4605 211.6622 15.74006278316028
Epoch: 2026-06-17T21:51Z
TLE epoch observation values (Epoch: 2026-06-17T21:51:47.588Z)
Latitude
-0.00005°
Longitude
112.14852°
Altitude
350.356 km
Speed
7.699 km/s
True Right ascension
23h 05m 02s
True Declination
0° 00' 00"
Sunlit
Object was in daylight at epoch
Visualization orbit readout
Latitude
Unknown
Longitude
Unknown
Altitude
Unknown
Speed
Unknown
Apparent Right ascension
Unknown
Apparent Declination
Unknown
Sunlit
N/A
Visualization observer readout
Local Sidereal Time
01:33:50
Azimuth
Unknown
Elevation
Unknown
Doppler factor
Unknown
Orbital elements
Apogee altitude
350.082 km
Perigee altitude
345.401 km
Semi-major axis
6,725.879 km
Eccentricity
0.00035
Inclination
53.0375°
RAAN
346.2587°
Arg. of periapsis
148.4605°
True anomaly
211.64128°
Mean anomaly
211.6622°
Eccentric anomaly
211.65174°
Mean motion
3.93477 °/min
Orbital period
91.49 mins
BSTAR
0.00073477
Loading maneuver chart data...
Computing Atmospheric mass density...

Documentation

Showing up to 5 results
|